Bedford, MA

2:20 AM EDT on May 27, 2017 (GMT -0400)
Hanscom

Weather History for KBED - February, 2011

Change the Weather History Date:

Wednesday, February 16, 2011

  Actual Average Record
Temperature  
Mean Temperature 26 °F -  
Max Temperature 39 °F 37 °F 60 °F (2006)
Min Temperature 12 °F 17 °F -5 °F (2015)
Degree Days  
Heating Degree Days 40    
Moisture  
Dew Point 7 °F    
Average Humidity 43    
Maximum Humidity 56    
Minimum Humidity 20    
Precipitation  
Precipitation 0.00 in - - ()
Sea Level Pressure  
Sea Level Pressure 30.28 in    
Wind  
Wind Speed 4 mph (SW)    
Max Wind Speed 17 mph    
Max Gust Speed 23 mph    
Visibility 10 miles    
Events      
Averages and records for this station are not official NWS values.
T = Trace of Precipitation, MM = Missing Value Source: NWS Daily Summary

Daily Weather History Graph

Daily Weather History Graph

Search for Another Location

Airport or City:

Trip Planner

Search our weather history database for the weather conditions in past years. The results will help you decide how hot, cold, wet, or windy it might be!

Date:

Astronomy

Feb. 16, 2011 Rise Set
Actual Time 6:40 AM EST 5:18 PM EST
Civil Twilight 6:12 AM EST 5:47 PM EST
Nautical Twilight 5:39 AM EST 6:20 PM EST
Astronomical Twilight 5:06 AM EST 6:52 PM EST
Moon 3:35 PM EST (2/16) 5:16 AM EST (2/16)
Length of Visible Light 11h 35m
Length of Day
10h 37m
Waxing Gibbous, 96% of the Moon is Illuminated
Feb 16
Waxing Gibbous
Feb 18
Full
Feb 24
Last Quarter
Mar 4
New
Mar 12
First Quarter

Hourly Weather History & Observations

Time (EST) Temp. Windchill Dew Point Humidity Pressure Visibility Wind Dir Wind Speed Gust Speed Precip Events Conditions
12:56 AM 12.9 °F - -2.9 °F 49% 30.39 in 10.0 mi Calm Calm - N/A   Clear
1:56 AM 15.1 °F - -2.9 °F 45% 30.38 in 10.0 mi Calm Calm - N/A   Clear
2:56 AM 14.0 °F - -0.9 °F 52% 30.37 in 10.0 mi Calm Calm - N/A   Clear
3:56 AM 15.1 °F 9.4 °F 1.0 °F 54% 30.39 in 10.0 mi SSW 3.5 mph - N/A   Clear
4:56 AM 14.0 °F 8.2 °F -0.9 °F 52% 30.40 in 10.0 mi SSW 3.5 mph - N/A   Mostly Cloudy
5:56 AM 12.9 °F - -0.9 °F 54% 30.41 in 10.0 mi Calm Calm - N/A   Scattered Clouds
6:56 AM 14.0 °F - -0.4 °F 53% 30.35 in 10.0 mi Calm Calm - N/A   Clear
7:56 AM 17.1 °F - -0.9 °F 45% 30.43 in 10.0 mi Calm Calm - N/A   Clear
8:56 AM 21.0 °F 11.4 °F 1.0 °F 42% 30.42 in 10.0 mi WSW 8.1 mph - N/A   Scattered Clouds
9:56 AM 26.1 °F 15.6 °F 1.9 °F 35% 30.38 in 10.0 mi SSW 11.5 mph - N/A   Clear
10:56 AM 33.1 °F 24.9 °F -0.0 °F 24% 30.34 in 10.0 mi SSW 10.4 mph - N/A   Partly Cloudy
11:56 AM 35.1 °F 25.9 °F 1.9 °F 25% 30.30 in 10.0 mi SSW 13.8 mph 19.6 mph N/A   Scattered Clouds
12:56 PM 39.0 °F 31.4 °F 1.0 °F 20% 30.25 in 10.0 mi SW 12.7 mph 19.6 mph N/A   Clear
1:56 PM 39.0 °F 29.9 °F 3.9 °F 23% 30.21 in 10.0 mi SSW 17.3 mph 23.0 mph N/A   Clear
2:56 PM 39.0 °F 31.4 °F 9.0 °F 29% 30.19 in 10.0 mi SSW 12.7 mph 20.7 mph N/A   Clear
3:56 PM 39.0 °F 32.3 °F 10.9 °F 32% 30.20 in 10.0 mi SW 10.4 mph - N/A   Mostly Cloudy
4:56 PM 37.0 °F 30.4 °F 16.0 °F 42% 30.18 in 10.0 mi SSW 9.2 mph - N/A   Mostly Cloudy
5:56 PM 37.0 °F 31.6 °F 19.0 °F 48% 30.18 in 10.0 mi SSW 6.9 mph - N/A   Overcast
6:56 PM 37.9 °F 34.4 °F 18.0 °F 45% 30.18 in 10.0 mi SW 4.6 mph - N/A   Overcast
7:56 PM 36.0 °F 32.1 °F 17.1 °F 46% 30.17 in 10.0 mi SW 4.6 mph - N/A   Clear
8:56 PM 33.8 °F - 15.8 °F 48% 30.12 in 10.0 mi Calm Calm - N/A   Scattered Clouds
9:56 PM 32.0 °F 28.7 °F 16.0 °F 52% 30.17 in 10.0 mi SSW 3.5 mph - N/A   Partly Cloudy
10:56 PM 32.0 °F - 18.0 °F 56% 30.16 in 10.0 mi Calm Calm - N/A   Overcast
11:56 PM 35.1 °F 31.0 °F 19.0 °F 52% 30.15 in 10.0 mi SW 4.6 mph - N/A   Overcast